Location: Nelms
(35.0516°N, 76.7049°W)
Time: 05:09:19
(UTC+00:00)

Daily predictions for brighter satellites

Satellite Brightness Start Highest point End
(mag) Time Altitude Azimuth Time Altitude Azimuth Time Altitude Azimuth
H-2A R/B 4.4 00:01:58 10° SSW 00:04:17 15° S 00:08:32 10° SE
Cosmos 1842 Rocket 3.8 00:00:45 10° NNW 00:05:13 71° W 00:09:40 10° S
ATLAS CENTAUR R/B 1.6 00:03:43 10° NW 00:07:29 57° WSW 00:10:40 12° SSE
Cosmos 1238 4.5 00:12:14 70° SE 00:12:14 70° SE 00:15:54 10° S
ADEOS Rocket 3.5 00:14:02 10° NNE 00:21:05 84° WNW 00:28:42 10° SSW
Cosmos 1943 3.3 00:15:59 10° N 00:21:30 51° ENE 00:21:30 51° ENE
Cosmos 1821 Rocket 4.4 00:18:06 10° SSW 00:24:25 64° W 00:30:41 10° N
DMSP B5D2-7 4.5 00:19:39 10° SSE 00:25:04 78° ENE 00:30:29 10° N
FALCON 9 R/B 3.0 00:05:39 10° WSW 00:25:19 69° SSE 00:27:35 44° E
Atlas 2A Centaur Rocket 3.7 00:20:53 10° SW 00:25:26 20° S 00:25:49 20° S
USA 238 DEB 3.9 00:20:23 10° SW 00:26:58 67° WNW 00:31:28 22° NNE
USA 238 3.9 00:20:30 10° SW 00:27:04 67° WNW 00:31:32 23° NNE
H-2A R/B 4.3 00:38:03 12° N 00:38:03 12° N 00:38:28 10° N
Cosmos 2221 3.8 00:30:56 10° NNW 00:34:57 40° W 00:38:59 10° SSW
Cosmos 1076 Rocket 4.5 00:31:18 10° SSW 00:35:26 46° W 00:38:16 19° NNW
Cosmos 1605 Rocket 3.9 00:29:28 10° S 00:35:38 60° E 00:35:43 60° E
OAO 2 Rocket 3.2 00:31:52 10° WSW 00:36:35 78° SSW 00:36:35 78° SSW
OAO 3 Rocket 4.0 00:49:30 10° W 00:52:47 46° W 00:52:47 46° W
Cosmos 1934 Rocket 4.4 00:49:31 10° SSW 00:55:28 58° W 01:01:26 10° N
Cosmos 2123 Rocket 4.0 00:51:27 10° N 00:57:45 78° W 01:03:57 10° S
Cosmos 407 Rocket 4.3 01:01:48 10° NNW 01:06:09 47° WNW 01:06:09 47° WNW
ATLAS 3B R/B 3.1 01:06:24 10° SSW 01:11:13 50° SSW 01:11:13 50° SSW
NOSS 3-2 (C) 4.2 01:14:29 10° SW 01:19:33 45° WNW 01:19:33 45° WNW
CENTAUR R/B 3.4 01:24:02 10° SW 01:28:04 42° W 01:28:04 42° W
Cosmos 2322 Rocket 4.4 08:44:41 20° E 08:44:41 20° E 08:48:01 10° NE
Cosmos 2263 Rocket 4.5 08:47:48 19° ENE 08:47:48 19° ENE 08:51:38 10° E
CENTAUR R/B 4.1 09:02:21 33° N 09:05:20 43° NE 09:13:30 10° ESE
NOSS 3-2 (A) 4.1 09:13:38 79° E 09:13:38 79° E 09:22:00 10° SE
SL-16 R/B 3.0 09:28:58 46° NE 09:28:58 46° NE 09:33:03 10° NNE
Cosmos 2360 Rocket 4.3 09:23:19 10° SSE 09:27:48 25° ESE 09:32:17 10° NE
CZ-3 Stage 3 3.7 09:33:02 41° SSE 09:33:02 41° SSE 09:35:29 10° SE
CZ-3 R/B 3.6 09:23:31 45° WSW 09:31:54 67° S 09:40:39 10° ESE
ATLAS 2AS CENTAUR R/B 3.4 09:40:31 46° NNW 09:40:31 46° NNW 09:46:49 10° NNE
Meteor 1-16 Rocket 4.2 09:44:33 10° S 09:50:28 88° E 09:56:19 10° N
USA 238 DEB 4.0 09:54:45 52° SW 09:54:45 52° SW 10:01:28 10° S
USA 238 4.0 09:54:48 53° SW 09:54:48 53° SW 10:01:35 10° S
Cosmos 1295 Rocket 4.2 09:56:00 73° W 09:56:02 73° W 10:02:04 10° S
Meteor 2-17 Rocket 4.3 10:01:56 63° WSW 10:01:56 63° WSW 10:07:31 10° S
RESURS DK-1 3.5 10:05:22 35° NNE 10:05:22 35° NNE 10:07:51 10° NNE
Lacrosse 5 3.1 10:07:37 28° N 10:07:37 28° N 10:10:35 10° NNE
Cosmos 1953 Rocket 3.6 10:06:38 70° NE 10:06:59 76° E 10:11:19 10° S
STARLINK 1064 4.4 10:08:21 43° NNE 10:08:21 43° NNE 10:11:15 10° NE
OAO 1 4.4 10:10:06 68° W 10:10:51 89° S 10:16:22 10° E
Cosmos 972 Rocket 4.4 10:12:23 47° SW 10:12:23 47° SW 10:16:29 10° S
STARLINK 1041 4.3 10:13:09 45° NNE 10:13:09 45° NNE 10:16:14 10° NE
BREEZE-M DEB (TANK) 3.8 10:11:57 44° W 10:13:05 48° WSW 10:16:47 10° SSE
Cosmos 1703 3.4 10:14:07 63° NNE 10:14:36 73° E 10:18:29 10° SSE
STARLINK 1038 4.1 10:17:55 46° N 10:17:55 46° N 10:21:10 10° NE
Cosmos 2366 rocket 4.3 10:10:59 10° N 10:17:20 69° E 10:23:37 10° SSE
Milstar 3 Cent rocket 4.5 10:06:38 23° WSW 10:19:19 61° S 10:28:16 10° E
Cosmos 2227 4.2 10:20:00 49° W 10:20:38 52° WSW 10:26:02 10° S
STARLINK 1046 4.1 10:22:41 46° N 10:22:41 46° N 10:26:06 10° NE
STARLINK 1039 4.0 10:27:29 45° NNW 10:27:29 45° NNW 10:31:04 10° NE
Cosmos 2322 Rocket 2.4 10:26:37 42° W 10:27:31 45° WNW 10:32:59 10° N
Orbus 7S? 4.5 10:27:26 29° NNW 10:29:23 59° NE 10:37:21 10° SE
STARLINK-60 3.5 10:30:11 50° NNE 10:30:35 54° NE 10:33:52 10° ESE
Cosmos 2263 Rocket 2.2 10:29:34 32° NW 10:31:57 55° WSW 10:37:28 10° S
STARLINK 1045 4.1 10:32:16 42° NNW 10:32:16 42° NNW 10:36:00 10° NNE
Cosmos 2056 Rocket 3.7 10:28:11 10° NNW 10:33:38 77° ENE 10:39:01 10° SSE
STARLINK 1050 4.2 10:37:17 37° NW 10:37:17 37° NW 10:41:05 10° NNE
ATLAS 3B R/B 2.6 10:33:35 17° NNW 10:39:05 83° WSW 10:46:06 10° SSE
Cosmos 158 Rocket 4.5 10:40:15 32° WNW 10:40:15 32° WNW 10:44:19 10° N
Meteosat 1 Rocket2 4.3 10:39:02 19° SW 10:41:04 28° S 10:44:19 10° ESE
STARLINK 1055 4.3 10:41:59 34° NW 10:42:08 34° NW 10:45:56 10° NNE
Cosmos 1844 Rocket 4.2 10:37:21 10° N 10:42:29 34° ENE 10:47:35 10° SE
Meteor 1-11 4.1 10:37:10 10° N 10:42:48 79° W 10:48:29 10° S
Cosmos 2058 Rocket 3.4 10:39:38 10° SSW 10:43:44 39° W 10:47:50 10° N
CZ-4B DEB 4.1 10:38:59 10° N 10:44:30 74° WNW 10:49:58 10° SSW
STARLINK 1022 4.4 10:46:46 30° NW 10:47:08 31° NW 10:50:52 10° NNE
Cosmos 1300 2.7 10:45:05 10° S 10:48:52 82° E 10:52:42 10° N
SL-8 Rocket 4.1 10:43:36 10° NNW 10:49:30 49° W 10:55:21 10° SSW
Okean O Rocket 1.6 10:45:29 10° NNE 10:49:55 84° E 10:54:19 10° SSW
USA 215 4.5 10:46:53 10° E 10:52:39 35° NE 10:58:27 10° NNW
Cosmos 2333 Rocket 3.4 10:47:24 10° S 10:52:53 47° ESE 10:58:22 10° NE
ALOS 2.6 10:49:29 10° N 10:53:53 42° WNW 10:58:16 10° SW
COSMO-SKYMED 1 2.8 10:50:44 10° S 10:54:53 45° W 10:59:03 10° NNW
CENTAUR R/B 3.5 10:49:35 15° NW 10:56:15 48° WSW 11:04:30 10° S
ATLAS 2A CENTAUR R/B 3.3 10:55:16 10° SW 10:58:04 27° SSE 11:04:58 10° E
FENGYUN 3A 4.0 10:56:37 10° N 11:01:43 43° WNW 11:06:47 10° SW
H-2A R/B 3.7 10:59:05 10° NNE 11:02:52 50° E 11:06:35 10° S
Cosmos 1437 3.2 11:01:31 10° N 11:04:30 57° E 11:07:29 10° SSE
Cosmos 2084 Rocket 3.4 11:01:15 10° SSW 11:05:34 89° WNW 11:09:59 10° NNE
Cosmos 2058 4.1 11:05:39 10° N 11:09:42 45° E 11:13:44 10° SSE
Cosmos 2360 Rocket 2.6 11:06:14 10° SW 11:11:30 39° WNW 11:16:47 10° N
SL-16 R/B 3.6 11:10:56 16° WNW 11:12:00 17° NW 11:15:34 10° NNW
Abrixas rocket 4.4 11:12:56 10° SW 11:13:15 10° SW 11:13:49 10° SW
Cosmos 2219 Rocket 2.6 11:08:14 10° S 11:13:49 69° ESE 11:19:28 10° NNE
USA 116 4.1 11:09:42 10° S 11:14:09 50° W 11:18:07 10° NNW
Cosmos 1452 Rocket 4.0 11:10:24 10° N 11:15:38 63° ENE 11:20:48 10° SSE
Milstar 3 4.1 11:06:03 10° WSW 11:15:38 43° S 11:22:08 10° E
Cosmos 2333 4.2 11:12:08 10° SSW 11:17:54 73° WNW 11:23:41 10° NNE
Cosmos 2322 3.7 11:13:27 10° SSW 11:19:02 61° WNW 11:24:40 10° NNE
Nadezhda 3 Rocket 4.0 11:17:13 10° SSW 11:23:17 64° W 11:29:26 10° N
Cosmos 1821 Rocket 4.0 11:17:44 10° N 11:23:53 89° W 11:29:58 10° S
Helios 1A Rocket 3.2 11:22:13 10° N 11:26:12 47° WNW 11:30:10 10° SSW
Cosmos 482 Debris 3.7 11:25:16 16° W 11:26:14 23° NW 11:27:47 10° NNE
Iridium 96 3.4 11:24:36 10° S 11:27:02 65° W 11:29:23 10° N
Alouette 2 Rocket 3.8 11:23:55 10° SSW 11:28:15 40° W 11:31:44 10° N
Cosmos-2242 3.7 11:24:50 10° S 11:29:09 61° E 11:33:28 10° NNE
CZ-4B R/B 3.5 11:24:54 10° N 11:30:03 44° WNW 11:35:05 10° SW
Cosmos 1892 3.7 11:27:12 10° N 11:30:54 48° E 11:34:33 10° SSE
CORIOLIS 4.5 11:28:08 10° NNE 11:33:31 74° ESE 11:38:52 10° S
Cosmos 1844 3.9 11:28:18 10° NNW 11:33:53 76° ENE 11:39:25 10° SSE
CZ-4 R/B 4.3 11:32:04 10° NE 11:35:25 23° E 11:38:43 10° SSE
Cosmos 1420 Rocket 4.2 11:34:41 10° NNW 11:39:51 54° WSW 11:45:00 10° S
Cosmos 1408 4.5 11:40:30 10° NNE 11:43:54 34° E 11:47:16 10° SSE
FALCON 9 DEB 3.9 11:41:05 10° WNW 11:44:21 38° SW 11:47:37 10° SSE
